Weather in Serman

Russia / Penza Oblast     53°33′44″N   46°21′52″E
temp.,
°C
wind,
m/s
gust,
m/s
humid.,
%
clouds,
%
prec.,
mm/h
press.,
hPa
HPBL,
m
28 february, sun
sun2800:00−16nnw5119399 0.0 1009449
03:00−18nnw5129497 0.0 1010360
06:00−20nw5109893 0.0 1011231
09:00−18nw589481 0.0 1012285
12:00−14nw589081 0.0 1013534
15:00−12nw588991 0.0 1014583
18:00−16nw3696100 0.0 1015124
21:00−18nnw3697100 0.0 101896
1 march, mon
mon100:00−19nnw339847 0.0 101929
03:00−20nw349927 0.0 102145
06:00−20nw33990 0.0 102228
09:00−16nw34959 0.0 1024163
12:00−11nw348782 0.0 1024401
15:00−9wnw469191 0.0 1024418
18:00−13w349650 0.0 102350
21:00−13wsw489868 0.0 1022162
2 march, tue
tue200:00−10wsw61395100 0.1 1019367
03:00−6sw71493100 0.1 1015463
06:00−4wsw71495100 0.9 1011634
09:00−1wsw81496100 2.2 1008778
12:000w712100100 1.3 1006783
15:000wnw61097100 1.9 1005779
18:00−2wnw51195100 0.4 1005377
21:00−4wnw489797 0.4 1005187
3 march, wed
wed300:00−7wnw479698 0.0 1005119
03:00−9wnw349682 0.0 100661
06:00−9nw349888 0.0 100668
09:00−5nw489585 0.1 1008354
12:00−2nw579199 0.2 1008734
15:00−2nnw688899 0.5 1009859
18:00−7nw479153 0.1 101098
21:00−10wnw469426 0.1 101390
4 march, thu
thu400:00−10wnw499745 0.0 1013191
03:00−12wsw479658 0.0 1013117
06:00−10wsw5119687 0.0 1012244
09:00−6wsw7139293 0.1 1009623
12:00−2wsw91490100 0.1 1006823
15:00−2wsw101689100 0.1 1003884
18:00−1wsw91690100 0.1 10011079
21:00−1wsw81593100 0.4 1002933